Weather History for Whiteman AFB, MO

Change the Weather History Date:

Wednesday, January 18, 2012

  Actual Average Record
Temperature  
Mean Temperature 24 °F -  
Max Temperature 39 °F 37 °F 53 °F (2006)
Min Temperature 10 °F 20 °F 3 °F (1997)
Degree Days  
Heating Degree Days 40    
Moisture  
Dew Point 14 °F    
Average Humidity 67    
Maximum Humidity 95    
Minimum Humidity 36    
Precipitation  
Precipitation 0.00 in - - ()
Sea Level Pressure  
Sea Level Pressure 30.17 in    
Wind  
Wind Speed 7 mph (SSW)    
Max Wind Speed 20 mph    
Max Gust Speed 28 mph    
Visibility 10 miles    
Events      
Averages and records for this station are not official NWS values.
T = Trace of Precipitation, MM = Missing Value Source: NWS Daily Summary

Daily Weather History Graph

Daily Weather History Graph

Search for Another Location

Airport:

Trip Planner

Search our weather history database for the weather conditions in past years. The results will help you decide how hot, cold, wet, or windy it might be!

Date:

Astronomy

Jan. 18, 2012 Rise Set
Actual Time 7:29 AM CST 5:19 PM CST
Civil Twilight 7:00 AM CST 5:48 PM CST
Nautical Twilight 6:28 AM CST 6:21 PM CST
Astronomical Twilight 5:56 AM CST 6:52 PM CST
Moon 2:59 AM CST (1/18) 12:59 PM CST (1/18)
Length of Visible Light 10h 47m
Length of Day
9h 49m
Waning Crescent, 24% of the Moon is Illuminated
Jan 18
Waning Crescent
Jan 23
New
Jan 30
First Quarter
Feb 7
Full
Feb 14
Last Quarter

Hourly Weather History & Observations

Time (CST) Temp. Windchill Dew Point Humidity Pressure Visibility Wind Dir Wind Speed Gust Speed Precip Events Conditions
12:55 AM 13.5 °F - 10.4 °F 88% 30.43 in 10.0 mi Calm Calm - N/A   Clear
1:55 AM 11.8 °F - 9.3 °F 90% 30.39 in 10.0 mi Calm Calm - N/A   Clear
2:55 AM 10.4 °F 4.0 °F 8.2 °F 91% 30.38 in 10.0 mi South 3.5 mph - N/A   Clear
3:55 AM 10.9 °F 4.7 °F 8.2 °F 89% 30.39 in 10.0 mi SSW 3.5 mph - N/A   Clear
4:55 AM 10.6 °F - 9.3 °F 95% 30.36 in 10.0 mi Calm Calm - N/A   Clear
5:55 AM 10.2 °F - 8.6 °F 93% 30.34 in 10.0 mi Calm Calm - N/A   Clear
6:55 AM 11.1 °F 0.4 °F 9.7 °F 94% 30.31 in 10.0 mi South 6.9 mph - N/A   Clear
7:55 AM 11.8 °F 1.3 °F 9.5 °F 90% 30.31 in 10.0 mi SSE 6.9 mph - N/A   Clear
8:55 AM 18.5 °F 6.1 °F 16.3 °F 91% 30.33 in 10.0 mi SSW 11.5 mph - N/A   Clear
9:55 AM 21.6 °F 9.3 °F 18.7 °F 89% 30.29 in 10.0 mi South 12.7 mph - N/A   Scattered Clouds
10:55 AM 26.4 °F 16.0 °F 17.8 °F 70% 30.28 in 10.0 mi SSW 11.5 mph - N/A   Scattered Clouds
11:55 AM 31.5 °F 19.4 °F 15.8 °F 52% 30.21 in 10.0 mi SSW 19.6 mph - N/A   Scattered Clouds
12:55 PM 33.3 °F 22.1 °F 14.7 °F 47% 30.12 in 10.0 mi SSW 18.4 mph 27.6 mph N/A   Scattered Clouds
1:55 PM 36.3 °F 26.4 °F 16.3 °F 44% 30.06 in 10.0 mi SSW 17.3 mph 27.6 mph N/A   Clear
2:55 PM 38.5 °F 29.2 °F 14.5 °F 38% 30.04 in 10.0 mi SW 17.3 mph - N/A   Clear
3:55 PM 39.6 °F 30.6 °F 14.2 °F 36% 30.01 in 10.0 mi SSW 17.3 mph 26.5 mph N/A   Clear
4:55 PM 35.6 °F 28.0 °F 14.9 °F 43% 30.01 in 10.0 mi SSW 10.4 mph - N/A   Clear
5:55 PM 34.9 °F 25.3 °F 14.9 °F 44% 29.99 in 10.0 mi SSW 15.0 mph - N/A   Clear
6:55 PM 33.6 °F 23.7 °F 17.4 °F 52% 29.99 in 10.0 mi SSW 15.0 mph - N/A   Clear
7:55 PM 33.3 °F 22.8 °F 16.5 °F 50% 29.97 in 10.0 mi SW 16.1 mph - N/A   Clear
8:55 PM 33.3 °F 23.2 °F 18.0 °F 53% 29.98 in 10.0 mi SW 15.0 mph - N/A   Clear
9:55 PM 33.1 °F 22.6 °F 17.6 °F 53% 29.97 in 10.0 mi SSW 16.1 mph - N/A   Clear
10:55 PM 32.4 °F 22.5 °F 18.9 °F 58% 29.96 in 10.0 mi SSW 13.8 mph - N/A   Clear
11:55 PM 31.3 °F 21.6 °F 20.1 °F 63% 29.92 in 10.0 mi South 12.7 mph - N/A   Partly Cloudy